Flag for France Weather past 2 weeks in Boulogne-Billancourt, France

Now
63 °F

Broken clouds.


Feels Like: 63 °F
Forecast: 52 / 70 °F
Wind: 15 mph from West

Location: Paris-Orly

Current Time: Jul 28, 2015 at 11:06:48 AM

Latest Report: Jul 28, 2015 at 10:30 AM


Visibility: N/A

Pressure: 29.89 "Hg

Humidity: 59%

Dew point: 48 °F

Location of Boulogne-BillancourtLocation

Historic Weather in Boulogne-Billancourt — Graph

°F

Boulogne-Billancourt temperature yesterday

Maximum temperature yesterday: 73 °F (at 3:30 PM)
Minimum temperature yesterday: 59 °F (at 12:00 AM)
Average temperature yesterday: 66 °F

Past Weeks' High & Low Weather Summary

 TemperatureHumidityPressure
High97 °F (Jul 16, 5:00 PM)94% (Jul 18, 11:00 PM)30.15 "Hg (Jul 18, 11:00 PM)
Low50 °F (Jul 26, 2:30 AM)20% (Jul 16, 5:30 PM)29.62 "Hg (Jul 25, 12:00 AM)
Average71 °F63%29.96 "Hg
* Reported Jul 13 10:00 AM — Jul 28 10:00 AM, Boulogne-Billancourt, Weather by CustomWeather, © 2015

Note: Actual official high and low records may vary slightly from our data, if they occured in-between our weather recording intervals... More about our weather records

Advertising

Boulogne-Billancourt weather history for previous 24 hours

 ConditionsComfort  
Time TempWeatherWind HumidityBarometerVisibility
10:00 AM
Tue, Jul 28
63 °FPartly sunny.15 mph59%29.89 "HgN/A
9:30 AM61 °FPartly sunny.15 mph63%29.89 "HgN/A
9:00 AM59 °FPartly sunny.10 mph72%29.89 "HgN/A
8:30 AM59 °FPartly sunny.12 mph72%29.89 "HgN/A
8:00 AM59 °FPartly sunny.13 mph72%29.89 "HgN/A
7:30 AM57 °FPartly sunny.12 mph72%29.86 "HgN/A
7:00 AM57 °FPassing clouds.10 mph72%29.86 "HgN/A
6:30 AM57 °FPassing clouds.9 mph72%29.86 "HgN/A
6:00 AM55 °FClear.10 mph77%29.86 "Hg10 mi
5:30 AM55 °FClear.9 mph77%29.86 "Hg10 mi
5:00 AM57 °FClear.8 mph72%29.86 "Hg10 mi
4:30 AM57 °FClear.8 mph67%29.83 "Hg10 mi
4:00 AM57 °FClear.9 mph72%29.83 "Hg10 mi
3:30 AM59 °FClear.10 mph68%29.83 "Hg10 mi
3:00 AM59 °FClear.12 mph68%29.83 "Hg10 mi
2:30 AM59 °FPassing clouds.10 mph63%29.86 "HgN/A
2:00 AM59 °FClear.13 mph63%29.86 "Hg10 mi
1:30 AM61 °FClear.13 mph59%29.83 "Hg10 mi
1:00 AM61 °FClear.13 mph59%29.86 "Hg10 mi
12:30 AM61 °FPassing clouds.14 mph63%29.83 "HgN/A
12:00 AM63 °FPassing clouds.16 mph64%29.83 "HgN/A
11:30 PM
Mon, Jul 27
63 °FPassing clouds.12 mph68%29.83 "HgN/A
11:00 PM64 °FPassing clouds.12 mph68%29.83 "HgN/A
10:30 PM64 °FBroken clouds.12 mph68%29.83 "HgN/A
10:00 PM66 °FSprinkles. Broken clouds.16 mph68%29.80 "HgN/A
9:30 PM68 °FBroken clouds.14 mph56%29.80 "HgN/A
9:00 PM70 °FBroken clouds.13 mph53%29.77 "HgN/A
8:30 PM70 °FPassing clouds.14 mph53%29.77 "HgN/A
8:00 PM72 °FSunny.16 mph50%29.77 "Hg10 mi
7:30 PM72 °FSunny.16 mph47%29.77 "Hg10 mi
7:00 PM72 °FSunny.16 mph50%29.77 "Hg10 mi
6:38 PM73 °FSunny.17 mph47%29.77 "Hg10 mi
6:30 PM72 °FSunny.18 mph50%29.77 "Hg10 mi
6:00 PM73 °FPassing clouds.17 mph47%29.77 "HgN/A
5:30 PM73 °FBroken clouds.20 mph47%29.77 "HgN/A
5:00 PM73 °FBroken clouds.15 mph47%29.77 "HgN/A
4:30 PM72 °FBroken clouds.15 mph50%29.77 "HgN/A
4:00 PM72 °FBroken clouds.20 mph50%29.77 "HgN/A
3:30 PM73 °FBroken clouds.18 mph53%29.77 "HgN/A
3:00 PM70 °FBroken clouds.21 mph57%29.77 "HgN/A
2:30 PM70 °FBroken clouds.17 mph57%29.77 "HgN/A
2:00 PM70 °FBroken clouds.21 mph57%29.77 "HgN/A
1:30 PM68 °FBroken clouds.17 mph60%29.77 "HgN/A
1:00 PM68 °FBroken clouds.16 mph60%29.74 "HgN/A
12:30 PM66 °FBroken clouds.15 mph68%29.74 "HgN/A
12:00 PM66 °FBroken clouds.14 mph73%29.74 "HgN/A
11:30 AM63 °FBroken clouds.10 mph88%29.74 "HgN/A
11:00 AM61 °FSprinkles. Partly sunny.16 mph94%29.74 "HgN/A
Weather by CustomWeather, © 2015

See weather overviewHow to use our weather pages